(256130) = 2006 VF3

Discovered at Kitt Peak on 2006-11-09 by Spacewatch.

Orbit

Orbit type: Main Belt

Note: WebGL enabled browser required.

epoch2024-03-31.0
epoch JD2460400.5
perihelion date2024-12-18.41086
perihelion JD2460662.91086
argument of perihelion (°)137.41568
ascending node (°)1.75600
inclination (°)2.25829
eccentricity0.0523525
perihelion distance (AU)2.4877872
Tisserand w.r.t. Jupiter3.4
ΔV w.r.t. Earth (km/sec)9.9
semimajor axis (AU)2.6252243
mean anomaly (°)299.19546
mean daily motion (°/day)0.23171500
aphelion distance (AU)2.763
period (years)4.25
P-vector [x]-0.75665592
P-vector [y]0.58875660
P-vector [z]0.28431932
Q-vector [x]-0.65381217
Q-vector [y]-0.68216799
Q-vector [z]-0.32737818
absolute magnitude16.73
phase slope0.15
uncertainty0
referenceMPEC 2024-C60
observations used339
oppositions14
arc length (days)7263
first opposition used2004
last opposition used2024
residual rms (arc-secs)0.73
perturbers coarse indicatorM-v
perturbers precise indicator003Ek
first observation date used2004-03-18.0
last observation date used2024-02-05.0
computer nameMPCLINUX
JD of orbit computation2456966.791552
perihelion JD uncertainty (days)1.9970E-04
argument of perihelion uncertainty (°)9.2815E-05
ascending node uncertainty (°)8.0233E-05
inclination uncertainty (°)5.1816E-06
eccentricity uncertainty 6.2584E-08
perihelion distance uncertainty (AU)1.6088E-07
Minimum Orbit Intersection Distances (in AU)
for orbit epoch: 2460200.5, reference: E2024-C60
Mercury2.12442
Venus1.76855
Earth1.49888
Mars0.82428
Jupiter2.22726
Saturn6.51285
Uranus15.9434
Neptune27.1507

Observations

351 total observations over interval: 2004 03 18.34465 – 2024 02 05.124671
These data are available for download (format description).

Date (UT) J2000 RA J2000 Dec Magn Location Ref
2004 03 18.34465 12 41 03.29 -04 42 34.7 20.4 C 704 – Lincoln Laboratory ETS, New Mexico MPS 293226
2004 03 18.35582 12 41 02.73 -04 42 31.3 19.7 C 704 – Lincoln Laboratory ETS, New Mexico MPS 293226
2004 04 14.16790 12 18 19.60 -02 44 14.3 20.2 V 691 – Steward Observatory, Kitt Peak-Spacewatch MPS 196408
2004 04 14.19749 12 18 18.21 -02 44 07.5 20.1 V 691 – Steward Observatory, Kitt Peak-Spacewatch MPS 196408
2004 04 14.22865 12 18 16.79 -02 44 00.3 20.2 V 691 – Steward Observatory, Kitt Peak-Spacewatch MPS 196408
2006 09 27.29165 02 41 20.54 +17 17 41.3 20.5 V G96 – Mt. Lemmon Survey MPS 190653
2006 09 27.29902 02 41 20.32 +17 17 40.9 20.5 V G96 – Mt. Lemmon Survey MPS 190653
2006 09 27.30646 02 41 20.11 +17 17 40.8 20.5 V G96 – Mt. Lemmon Survey MPS 190653
2006 09 27.31398 02 41 19.89 +17 17 40.4 20.5 V G96 – Mt. Lemmon Survey MPS 190653
2006 10 15.28711 02 29 51.35 +16 44 32.6   691 – Steward Observatory, Kitt Peak-Spacewatch MPS 190653
2006 10 15.30446 02 29 50.49 +16 44 29.7   691 – Steward Observatory, Kitt Peak-Spacewatch MPS 190653
2006 10 15.32181 02 29 49.59 +16 44 26.8   691 – Steward Observatory, Kitt Peak-Spacewatch MPS 190653
2006 10 23.27017 02 22 52.39 +16 18 35.1 20.5 V 691 – Steward Observatory, Kitt Peak-Spacewatch MPS 190653
2006 10 23.27267 02 22 52.25 +16 18 34.2 20.5 V 691 – Steward Observatory, Kitt Peak-Spacewatch MPS 190653
2006 10 23.28755 02 22 51.40 +16 18 31.2 20.6 V 691 – Steward Observatory, Kitt Peak-Spacewatch MPS 190653
2006 10 23.29005 02 22 51.27 +16 18 30.7 20.4 V 691 – Steward Observatory, Kitt Peak-Spacewatch MPS 190653
2006 10 23.30492 02 22 50.41 +16 18 27.4 20.4 V 691 – Steward Observatory, Kitt Peak-Spacewatch MPS 190653
2006 10 23.30742 02 22 50.22 +16 18 26.5 20.1 V 691 – Steward Observatory, Kitt Peak-Spacewatch MPS 190653
2006 11 01.27827 02 14 26.17 +15 43 48.5 20.2 V 691 – Steward Observatory, Kitt Peak-Spacewatch MPS 190653
2006 11 01.29559 02 14 25.18 +15 43 44.3 20.0 V 691 – Steward Observatory, Kitt Peak-Spacewatch MPS 190653
2006 11 01.31292 02 14 24.17 +15 43 39.1 19.8 V 691 – Steward Observatory, Kitt Peak-Spacewatch MPS 190653
2006 11 09.19653 02 07 10.55 +15 11 18.4   691 – Steward Observatory, Kitt Peak-Spacewatch MPS 187218
2006 11 09.20726 02 07 09.98 +15 11 15.6   691 – Steward Observatory, Kitt Peak-Spacewatch MPS 187218
2006 11 09.21774 02 07 09.37 +15 11 13.0   691 – Steward Observatory, Kitt Peak-Spacewatch MPS 187218
2006 11 11.13812 02 05 29.07 +15 03 22.9 20.6 V 691 – Steward Observatory, Kitt Peak-Spacewatch MPS 187218
2006 11 11.15354 02 05 28.24 +15 03 19.5 20.4 V 691 – Steward Observatory, Kitt Peak-Spacewatch MPS 187218
2006 11 11.16896 02 05 27.42 +15 03 16.0 20.6 V 691 – Steward Observatory, Kitt Peak-Spacewatch MPS 187218
2006 11 13.12772 02 03 48.08 +14 55 23.2   691 – Steward Observatory, Kitt Peak-Spacewatch MPS 187218
2006 11 13.14054 02 03 47.42 +14 55 20.0   691 – Steward Observatory, Kitt Peak-Spacewatch MPS 187218
2006 11 13.15337 02 03 46.76 +14 55 17.4   691 – Steward Observatory, Kitt Peak-Spacewatch MPS 187218
2006 11 22.07955 01 57 04.16 +14 22 03.0 21.4 V 691 – Steward Observatory, Kitt Peak-Spacewatch MPS 188860
2006 11 22.09236 01 57 03.64 +14 21 59.9 21.3 V 691 – Steward Observatory, Kitt Peak-Spacewatch MPS 188860
2006 11 22.10518 01 57 03.11 +14 21 58.2 20.8 V 691 – Steward Observatory, Kitt Peak-Spacewatch MPS 188860
2006 11 27.07700 01 54 03.35 +14 06 18.7   691 – Steward Observatory, Kitt Peak-Spacewatch MPS 190653
2006 11 27.09490 01 54 02.73 +14 06 16.0   691 – Steward Observatory, Kitt Peak-Spacewatch MPS 190653
2006 11 27.11279 01 54 02.14 +14 06 13.0   691 – Steward Observatory, Kitt Peak-Spacewatch MPS 190653
2008 02 01.28317 11 00 16.88 +08 20 40.9 21.0 V 691 – Steward Observatory, Kitt Peak-Spacewatch MPS 236340
2008 02 01.30076 11 00 16.35 +08 20 45.1 20.9 V 691 – Steward Observatory, Kitt Peak-Spacewatch MPS 236340
2008 02 01.31835 11 00 15.74 +08 20 48.1 21.1 V 691 – Steward Observatory, Kitt Peak-Spacewatch MPS 236340
2008 02 08.33972 10 55 54.48 +08 44 21.1 20.3 V 691 – Steward Observatory, Kitt Peak-Spacewatch MPS 236340
2008 02 08.35733 10 55 53.72 +08 44 25.3 20.1 V 691 – Steward Observatory, Kitt Peak-Spacewatch MPS 236340
2008 02 08.37246 10 55 53.05 +08 44 28.5 20.3 V 691 – Steward Observatory, Kitt Peak-Spacewatch MPS 236340
2008 02 12.33673 10 52 57.37 +09 00 01.9 19.9 V 691 – Steward Observatory, Kitt Peak-Spacewatch MPS 237627
2008 02 12.35437 10 52 56.47 +09 00 06.4 20.0 V 691 – Steward Observatory, Kitt Peak-Spacewatch MPS 237627
2008 02 12.37200 10 52 55.65 +09 00 10.6 20.0 V 691 – Steward Observatory, Kitt Peak-Spacewatch MPS 237627
2008 02 26.33142 10 40 52.93 +10 01 28.4 19.1 V G96 – Mt. Lemmon Survey MPS 239507
2008 02 26.33716 10 40 52.57 +10 01 29.9 19.7 V G96 – Mt. Lemmon Survey MPS 239507
2008 02 26.34281 10 40 52.24 +10 01 31.3 19.9 V G96 – Mt. Lemmon Survey MPS 239507
2008 02 26.34853 10 40 51.92 +10 01 33.0 19.4 V G96 – Mt. Lemmon Survey MPS 239507
2008 02 27.33975 10 39 57.58 +10 05 59.6 19.5   704 – Lincoln Laboratory ETS, New Mexico MPS 239507
2008 02 27.35150 10 39 56.83 +10 06 02.0 19.5   704 – Lincoln Laboratory ETS, New Mexico MPS 239507
2008 02 27.38663 10 39 54.91 +10 06 11.7 19.4   704 – Lincoln Laboratory ETS, New Mexico MPS 239507
2008 04 03.18927 10 14 57.58 +11 47 43.6 20.6 V G96 – Mt. Lemmon Survey MPS 244766
2008 04 03.19536 10 14 57.48 +11 47 43.8 20.8 V G96 – Mt. Lemmon Survey MPS 244766
2008 04 03.20137 10 14 57.33 +11 47 43.6 20.5 V G96 – Mt. Lemmon Survey MPS 244766
2008 04 03.20740 10 14 57.22 +11 47 44.0 20.7 V G96 – Mt. Lemmon Survey MPS 244766
2010 09 04.31350 01 01 59.29 +06 46 11.5 20.5 V 691 – Steward Observatory, Kitt Peak-Spacewatch MPS 347141
2010 09 04.33120 01 01 58.77 +06 46 09.1 20.5 V 691 – Steward Observatory, Kitt Peak-Spacewatch MPS 347141
2010 09 04.34891 01 01 58.21 +06 46 07.0 20.5 V 691 – Steward Observatory, Kitt Peak-Spacewatch MPS 347141
2010 09 17.21516 00 54 01.37 +06 08 11.1 20.9 V 691 – Steward Observatory, Kitt Peak-Spacewatch MPS 348032
2010 09 17.23280 00 54 00.56 +06 08 07.0 20.7 V 691 – Steward Observatory, Kitt Peak-Spacewatch MPS 348032
2010 09 17.25044 00 53 59.76 +06 08 03.0 20.7 V 691 – Steward Observatory, Kitt Peak-Spacewatch MPS 348032
2010 10 01.20604 00 42 33.41 +05 08 43.2 20.1 V 691 – Steward Observatory, Kitt Peak-Spacewatch MPS 349503
2010 10 01.22369 00 42 32.44 +05 08 38.1 20.1 V 691 – Steward Observatory, Kitt Peak-Spacewatch MPS 349503
2010 10 01.24133 00 42 31.40 +05 08 32.4 19.8 V 691 – Steward Observatory, Kitt Peak-Spacewatch MPS 349503
2010 10 01.33849 00 42 26.08 +05 08 05.9 19.8 R G92 – Jarnac Observatory, Vail MPS 351308
2010 10 01.35557 00 42 25.26 +05 08 01.7 19.8 R G92 – Jarnac Observatory, Vail MPS 351308
2010 10 01.37266 00 42 24.52 +05 07 56.3 19.8 R G92 – Jarnac Observatory, Vail MPS 351308
2010 10 04.420064 00 39 43.970 +04 53 39.11 20.65 w F51 – Pan-STARRS 1, Haleakala MPS 366878
2010 10 04.433390 00 39 43.241 +04 53 35.38 20.56 w F51 – Pan-STARRS 1, Haleakala MPS 366878
2010 10 04.448823 00 39 42.390 +04 53 31.01 20.66 w F51 – Pan-STARRS 1, Haleakala MPS 366878
2010 10 04.462824 00 39 41.628 +04 53 26.94 20.65 w F51 – Pan-STARRS 1, Haleakala MPS 366878
2010 10 07.21719 00 37 16.60 +04 40 24.2 20.0 V 691 – Steward Observatory, Kitt Peak-Spacewatch MPS 349503
2010 10 07.23485 00 37 15.67 +04 40 19.1 20.1 V 691 – Steward Observatory, Kitt Peak-Spacewatch MPS 349503
2010 10 07.25248 00 37 14.64 +04 40 13.8 20.3 V 691 – Steward Observatory, Kitt Peak-Spacewatch MPS 349503
2010 10 08.22513 00 36 23.75 +04 35 39.4 19.8   704 – Lincoln Laboratory ETS, New Mexico MPS 351308
2010 10 08.23858 00 36 22.95 +04 35 35.8 20.0   704 – Lincoln Laboratory ETS, New Mexico MPS 351308
2010 10 08.28113 00 36 20.65 +04 35 23.0 20.3   704 – Lincoln Laboratory ETS, New Mexico MPS 351308
2010 10 11.15223 00 33 51.86 +04 21 54.1 20.5 V 691 – Steward Observatory, Kitt Peak-Spacewatch MPS 351308
2010 10 11.16991 00 33 50.95 +04 21 50.0 20.4 V 691 – Steward Observatory, Kitt Peak-Spacewatch MPS 351308
2010 10 11.18758 00 33 50.04 +04 21 44.2 20.7 V 691 – Steward Observatory, Kitt Peak-Spacewatch MPS 351308
